Location: Palomar Mountain Lodge
(33.3110°N, 116.8495°W)
Time: 07:24:55
(UTC-08:00)

Hubble Space Telescope - Pass Details

Date: 13 December 2025
Orbit: 479 x 481 km, 28.5° (Epoch: 19 January)

Event Time Altitude Azimuth Distance (km) Brightness Sun altitude
Rises 17:02:05 0° 251° (WSW) 2,524 6.9 -4.8°
Reaches altitude 10° 17:04:23 10° 243° (WSW) 1,646 5.2 -5.2°
Maximum altitude 17:07:53 37° 175° (S) 758 1.7 -5.9°
Drops below altitude 10° 17:11:25 10° 107° (ESE) 1,646 2.8 -6.6°
Enters shadow 17:12:43 - 101° (E) 2,139 3.3 -6.8°
